Regional Weather Roundup
Issued by NWS

Home | Current Version | Previous Version | Text Only | Print | Product List | Glossary On
Versions: 1 2 3 4 5 6 7 8 9 10 11 12 13 14 15 16 17 18 19 20 21 22 23 24 25 26 27 28 29 30 31 32 33 34 35 36 37 38 39 40 41 42 43 44 45 46 47 48 49 50
000
ASUS45 KPSR 292010
RWRAZ

ARIZONA HOURLY REGIONAL WEATHER ROUNDUP
NATIONAL WEATHER SERVICE PHOENIX AZ
100 PM MST FRI MAY 29 2015

NOTE: FAIR INDICATES FEW OR NO CLOUDS BELOW 12,000 FEET WITH NO
SIGNIFICANT WEATHER AND/OR OBSTRUCTIONS TO VISIBILITY.

AZZ001>003-036-292100-
NORTHWEST ARIZONA

CITY           SKY/WX    TMP DP  RH WIND       PRES   REMARKS
BULLHEAD CITY  SUNNY     99  25   7 SW13G21   29.86F
KINGMAN        SUNNY     92  21   7 SW18G30   30.03F
$$

AZZ004>008-015-016-018-292100-
NORTH CENTRAL ARIZONA

CITY           SKY/WX    TMP DP  RH WIND       PRES   REMARKS
GRAND CANYON   LGT RAIN  65  38  36 N13       30.29R
WILLIAMS       CLOUDY    70  34  26 E14       30.32S
PRESCOTT       SUNNY     84  27  12 S12G18    30.14F
FLAGSTAFF      CLOUDY    65  36  34 N14       30.29R
PAYSON         MOSUNNY   82  25  12 VRB3G13   30.15F
PAGE           SUNNY     82  38  20 MISG      30.11F
$$

AZZ009>014-017-292100-
NORTHEAST ARIZONA

CITY           SKY/WX    TMP DP  RH WIND       PRES   REMARKS
WINSLOW        NOT AVBL
SAINT JOHNS    MOSUNNY   77  28  16 VRB5      30.16F
WINDOW ROCK    CLOUDY    72  29  20 N15G22    30.24F
SHOW LOW       SUNNY     73  27  17 CALM      30.22F
$$

AZZ023-292100-
GREATER PHOENIX AREA

CITY           SKY/WX    TMP DP  RH WIND       PRES   REMARKS
PHOENIX        MOSUNNY   97  26   8 W5        29.88F
BUCKEYE        SUNNY     95  27   8 SE6       29.90F
GLENDALE       MOSUNNY   97  30   9 SW7       29.91F
LUKE AFB       MOSUNNY   97  30   9 SW6       29.88F
DEER VALLEY    SUNNY     96  26   8 S8        29.91F
SCOTTSDALE     SUNNY     96  28   9 SW10      29.92F
MESA-FALCON    MOSUNNY   97  32  10 SW6       29.91F
MESA-GATEWAY   MOSUNNY   93  30  10 NW8       29.93F
CHANDLER       MOSUNNY   95  27   8 SW7       29.91F
$$

AZZ027-028-292100-
SOUTHWEST MARICOPA COUNTY AND PINAL COUNTY

CITY           SKY/WX    TMP DP  RH WIND       PRES   REMARKS
CASA GRANDE    SUNNY     95  34  11 CALM      29.91F
GILA BEND      SUNNY     97  33  10 VRB5      29.88F
$$

AZZ503-504-507>509-292100-
SOUTHEAST ARIZONA

CITY           SKY/WX    TMP DP  RH WIND       PRES   REMARKS
TUCSON         SUNNY     95  29   9 CALM      29.98F
DAVIS-MONTHAN  SUNNY     94  30  10 N8        29.96F
RYAN FIELD       N/A     95  32  11 E8        29.96F
NOGALES        MOSUNNY   91  32  12 VRB6G20   30.05F
SIERRA VISTA   SUNNY     86  31  13 VRB5      30.11F
DOUGLAS        MOSUNNY   87  37  17 VRB5      30.06F
SAFFORD        MOSUNNY   94  24   8 VRB3G18   29.97F
$$

AZZ020-021-025-026-031-292100-
SOUTHWEST ARIZONA

CITY           SKY/WX    TMP DP  RH WIND       PRES   REMARKS
YUMA           MOSUNNY   97  31   9 S7        29.86F
$$

CAZ031-033-041-043-047-048-061-292100-
SOUTHERN CALIFORNIA

CITY           SKY/WX    TMP DP  RH WIND       PRES   REMARKS
DOWNTOWN L.A.  SUNNY     75  58  55 W7        29.93F HAZE
L.A. AIRPORT   MOSUNNY   66  57  72 W12       29.96S
SAN DIEGO      MOSUNNY   69  56  62 W10       29.96S
BURBANK        SUNNY     78  56  46 S9        29.93F
ONTARIO        PTSUNNY   84  51  31 SW8       29.92F
RIVERSIDE      SUNNY     83  54  36 W8        29.92F
PALM SPRINGS   MOSUNNY   95  43  16 E12       29.89F
EL CENTRO NAS  MOSUNNY   95  46  18 S6        29.86F
IMPERIAL       SUNNY     96  47  18 W6        29.83F
BLYTHE         SUNNY     97  30   9 S9        29.86F
NEEDLES        SUNNY    101  10   3 MISG      29.87F
$$

NVZ020-UTZ003-292100-
SOUTHERN NEVADA-UTAH

CITY           SKY/WX    TMP DP  RH WIND       PRES   REMARKS
LAS VEGAS      MOSUNNY   95  27   9 CALM      29.91F
SALT LAKE CITY MOSUNNY   73  43  33 N9        30.17F
$$

NMZ009-TXZ055-292100-
NEW MEXICO-WEST TEXAS

CITY           SKY/WX    TMP DP  RH WIND       PRES   REMARKS
ALBUQUERQUE    PTSUNNY   79  35  20 CALM      30.15F
EL PASO        MOSUNNY   91  21   8 VRB5      30.00F
$$


........................KEY........................
SKY/WX - SKY CONDITION/WEATHER
TMP    - TEMPERATURE IN FAHRENHEIT
DP     - DEW POINT IN FAHRENHEIT
RH     - RELATIVE HUMIDITY IN PERCENT
WIND   - DIRECTION AND SPEED IN MILES PER HOUR (MPH)
VRB    - VARIABLE WIND DIRECTION
PRES   - MEAN SEA LEVEL PRESSURE IN INCHES OF MERCURY
         F - FALLING PRESSURE   R - RISING PRESSURE
         S - STEADY PRESSURE
VSB    - VISIBILITY IN MILES
HX     - HEAT INDEX IN FAHRENHEIT
WCI    - WIND CHILL INDEX IN FAHRENHEIT
TC     - TEMPERATURE IN CELSIUS WHICH IS ALSO KNOWN AS
         TEMPERATURE IN CENTIGRADE
AFB    - AIR FORCE BASE
         LUKE AFB IS LUKE AIR FORCE BASE
         DAVIS-MONTHAN IS DAVIS-MONTHAN AIR FORCE BASE
NAS    - NAVAL AIR STATION
         EL CENTRO NAS IS EL CENTRO NAVAL AIR STATION
N/A    - NOT AVAILABLE



USA.gov is the U.S. government's official web portal to all federal, state and local government web resources and services.